Regional Weather Roundup
Issued by NWS Sterling, VA

Home | Current Version | Previous Version | Graphics & Text | Print | Product List | Glossary On
Versions: 1 2 3 4 5 6 7 8 9 10 11 12 13 14 15 16 17 18 19 20 21 22 23 24 25 26 27 28 29 30 31 32 33 34 35 36 37 38 39 40 41 42 43 44 45 46 47 48 49 50
000
ASUS41 KLWX 080110
RWRLWX

REGIONAL WEATHER ROUNDUP
NATIONAL WEATHER SERVICE BALTIMORE MD/WASHINGTON DC
800 PM EST WED DEC 07 2016

Note: "FAIR" indicates few or no clouds below 12,000 feet
with no significant weather and/or obstructions to visibility.
 TC=TEMPERATURE CELSIUS

 * =Non NWS site. Station does not report precipitation (e.g. rain,
    snow, etc.), thunder, or fog.

DCZ001-MDZ009-015-VAZ040>042-051-053>054-080200-
WASHINGTON METRO

CITY           SKY/WX    TMP DP  RH WIND       PRES   REMARKS
WASHINGTON NAT CLOUDY    43  37  79 S5        30.08F
DULLES         MOCLDY    34  30  85 CALM      30.07S
ANDREWS AFB    PTCLDY    35  31  83 S2        30.06F
FT BELVOIR     CLOUDY    35  31  84 CALM      30.08S
QUANTICO       CLOUDY    38  34  85 NW7       30.09S
COLLEGE PARK*  CLOUDY    34  32  93 CALM      30.08S
LEESBURG*      CLEAR     36  34  93 SW3       30.08S
GAITHERSBURG*  CLEAR     34  27  75 CALM      30.10F

$$

MDZ006>007-011-014-080200-
BALTIMORE METRO

CITY           SKY/WX    TMP DP  RH WIND       PRES   REMARKS
BWI AIRPORT    MOCLDY    34  31  88 CALM      30.07F
MD SCIENCE CTR   N/A     45  30  55 MISG      30.07F
MARTIN STATE   CLEAR     37  36  93 CALM      30.09F
ANNAPOLIS      CLEAR     41  34  76 CALM      30.08S
FORT MEADE*    CLEAR     32  30  93 CALM      30.10S

$$

MDZ012-015-019>023-080200-
MARYLAND EASTERN SHORE

CITY           SKY/WX    TMP DP  RH WIND       PRES   REMARKS
OCEAN CITY     PTCLDY    37  36  96 CALM      30.08S FOG
SALISBURY      PTCLDY    36  35  96 CALM      30.08S
EASTON*        CLEAR     39  37  93 CALM      30.11F

$$

MDZ017>025-080200-
SOUTHERN MARYLAND

CITY           SKY/WX    TMP DP  RH WIND       PRES   REMARKS
PATUXENT RIVER CLOUDY    35  33  92 CALM      30.08F
ST INIGOES     CLOUDY    37  35  92 CALM      30.08S
LEONARDTOWN*   CLOUDY    36  32  87 CALM      30.10F

$$

MDZ003>005-080200-
NORTH CENTRAL MARYLAND

CITY           SKY/WX    TMP DP  RH WIND       PRES   REMARKS
FREDERICK*     NOT AVBL
HAGERSTOWN APT PTCLDY    40  18  41 CALM      30.05S
WESTMINSTER*   PTCLDY    36  30  80 S3        30.05S

$$

MDZ501>502-080200-
WESTERN MARYLAND

CITY           SKY/WX    TMP DP  RH WIND       PRES   REMARKS
OAKLAND*       MOCLDY    30  19  64 W6        30.01S
CUMBERLAND*    NOT AVBL

$$

VAZ025>031-080200-
SHENANDOAH VALLEY

CITY           SKY/WX    TMP DP  RH WIND       PRES   REMARKS
WINCHESTER*    CLEAR     32  23  69 NW5       30.06S
FRONT ROYAL*   FAIR      34  32  93 CALM      30.05S
LURAY*         FAIR      36  34  93 CALM      30.05F
NEW MARKET*    FAIR      32  30  94 CALM      30.05S
STAUNTON*      PTCLDY    32  30  94 CALM      30.07F
WAYNESBORO*    FAIR      34  30  86 SW6       30.05F

$$

WVZ021-048>050-054>055-080200-
EASTERN WEST VIRGINIA PANHANDLE

CITY           SKY/WX    TMP DP  RH WIND       PRES   REMARKS
MARTINSBURG    CLEAR     36  23  59 W6        30.06R
PETERSBURG*    CLEAR     32  28  83 CALM      30.08R

$$

VAZ036>039-050-080200-
CENTRAL FOOTHILLS

CITY           SKY/WX    TMP DP  RH WIND       PRES   REMARKS
CHARLOTTESVILL CLEAR     45  34  65 CALM      30.06S
CULPEPER*      CLOUDY    34  33  96 CALM      30.08F
ORANGE*          N/A     36  36 100 CALM      30.09S
GORDONSVILLE*  FAIR      35  34  98 CALM      30.07S
WARRENTON*     FAIR      31  27  85 CALM      30.06F

$$

VAZ055>057-080200-
NORTH AND CENTRAL PIEDMONT

CITY           SKY/WX    TMP DP  RH WIND       PRES   REMARKS
FREDERICKSBRG* CLOUDY    37  36  93 CALM      30.07F
STAFFORD*      PTCLDY    33  33 100 CALM      30.12S

$$

NCZ024-NYZ072-PAZ021-071-VAZ022-071-080200-
OTHER REGIONAL OBSERVATIONS

CITY           SKY/WX    TMP DP  RH WIND       PRES   REMARKS
NEW YORK CITY  CLOUDY    44  33  65 NW5       30.06S
PHILADELPHIA   MOCLDY    44  30  57 NW8       30.07S
PITTSBURGH     CLOUDY    37  22  54 W5        30.06S
ROANOKE        PTCLDY    44  30  57 CALM      30.09R
RICHMOND       CLOUDY    42  32  67 E5        30.09R
RALEIGH        PTCLDY    46  42  86 CALM      30.07S

$$

ANZ530>537-080200-
MARINE OBSERVATIONS

STATION/POSITION TIME  TEMP    WIND        PRES
                       AIR SEA DIR/SP/G
                 (UTC) (F)     (DEG/KT/KT) (MB)
THOMAS PT LIGHT  0000   47 49  310/  3/  4   N/A
BALT KEY BRIDGE  0048   45     210/  2/  2 1018.4F
COVE POINT       0048   45      CALM  /  2 1019.3F
LEWISETTA        0048   44 49  210/  3/  3 1018.5S
SOLOMONS ISLAND  0024   44 51   30/  2/  2   N/A
PINEY POINT      0036           60/  4/  5   N/A

$$




USA.gov is the U.S. government's official web portal to all federal, state and local government web resources and services.